Regional Weather Roundup
Issued by NWS Burlington, VT

Home | Current Version | Previous Version | Text Only | Print | Product List | Glossary On
Versions: 1 2 3 4 5 6 7 8 9 10 11 12 13 14 15 16 17 18 19 20 21 22 23 24 25 26 27 28 29 30 31 32 33 34 35 36 37 38 39 40 41 42 43 44 45 46 47 48 49 50
000
ASUS41 KBTV 221730
RWRBTV
VERMONT REGIONAL WEATHER ROUNDUP
NATIONAL WEATHER SERVICE BURLINGTON VT
100 PM EDT THU JUN 22 2017

NOTE: "FAIR" INDICATES FEW OR NO CLOUDS BELOW 12,000 FEET WITH NO
SIGNIFICANT WEATHER AND/OR OBSTRUCTIONS TO VISIBILITY.

* THESE REPORTS ARE NOT UNDER NWS QUALITY CONTROL AND/OR DO NOT
  REPORT WEATHER SUCH AS PRECIPITATION AND FOG.

VTZ001>019-221800-
_____VERMONT_____


CITY           SKY/WX    TMP DP  RH WIND       PRES   REMARKS
BURLINGTON     MOSUNNY   76  53  44 VRB6      29.92F
MONTPELIER     MOSUNNY   72  52  49 VRB7      29.98F
MORRISVILLE    MOSUNNY   73  47  39 VRB5      29.94F
ST. JOHNSBURY*   N/A     74  48  39 MISG      29.91F
LYNDONVILLE*   PTSUNNY   72  48  43 SW9       29.96S
MIDDLEBURY*    FAIR      75  55  48 SW5       29.93F
RUTLAND*       MOSUNNY   72  52  49 SW8       29.96F
SPRINGFIELD    SUNNY     77  46  33 SW8       29.95F
HIGHGATE*      FAIR      76  54  46 W5        29.91S
NEWPORT*       PTSUNNY   70  50  48 W8        29.93F
BENNINGTON     MOSUNNY   74  55  51 VRB5      29.97F
SUTTON*          N/A     70 N/A N/A MISG        N/A
ISLAND POND*     N/A     70 N/A N/A W8          N/A
GALLUP MILLS*    N/A     73 N/A N/A MISG        N/A
UNION VILLAGE*   N/A     77 N/A N/A MISG        N/A

_____LAKE CHAMPLAIN_____


CITY           SKY/WX    TMP DP  RH WIND       PRES   REMARKS
BURTON ISLAND*   N/A     72  55  56 SW9         N/A
COLCHESTER RF*   N/A     70  57  64 S14         N/A
DIAMOND ISL*     N/A     73  55  53 S2G12       N/A

$$

NYZ007-026>031-035-052-083-087-221800-
_____NORTHERN NEW YORK_____


CITY           SKY/WX    TMP DP  RH WIND       PRES   REMARKS
PLATTSBURGH    MOSUNNY   75  56  51 SE14      29.91F
SARANAC LAKE   MOSUNNY   70  49  47 SW13      29.96S
MASSENA        MOSUNNY   75  56  51 SW12      29.94F
OGDENSBURG*    FAIR      75  55  48 SW8       29.93F
POTSDAM*       SUNNY     73  57  56 W14       29.94S
STARK FALLS*     N/A     70 N/A N/A W12         N/A
WATERTOWN      CLOUDY    69  61  75 W6        29.95F
FT DRUM        CLOUDY    73  55  53 W9        29.96S
ALBANY         PTSUNNY   77  54  44 W12G18    29.96F
GLENS FALLS    PTSUNNY   76  55  48 VRB6      29.94

$$
NHZ002-005-011-221800-
_____NEW HAMPSHIRE_____


CITY           SKY/WX    TMP DP  RH WIND       PRES   REMARKS
LEBANON        MOSUNNY   76  50  40 NW9       29.93F
KEENE          MOSUNNY   77  51  40 W7G17     29.95F
MT WASHINGTON  PTSUNNY   46  41  81 W33G39      N/A
PLYMOUTH       PTSUNNY   74  52  46 NW3       29.92F
WHITEFIELD     MOSUNNY   73  48  41 W9        29.94F

$$

_____REGIONAL QUEBEC LOCATIONS_____


CITY           SKY/WX    TMP DP  RH WIND       PRES   REMARKS
MONTREAL       PTSUNNY   73  57  56 SW18      29.89F
QUEBEC CITY    PTSUNNY   70  48  46 W17G24    29.85F
SHERBROOKE     PTSUNNY   72  55  56 W9G20     29.90F

_____REGIONAL ONTARIO LOCATIONS_____


CITY           SKY/WX    TMP DP  RH WIND       PRES   REMARKS
OTTAWA         PTSUNNY   73  52  46 SW12      29.91F

______KEY______
VSB  - VISIBILITY IN MILES
WCI  - WIND CHILL INDEX
HX   - HEAT INDEX
$$
NNNN




USA.gov is the U.S. government's official web portal to all federal, state and local government web resources and services.